H1 CPF 2 NER 2023 5 20 9 140 01 glonass106 H2 0705201 9106 32275 2023 5 20 0 0 0 2023 5 23 23 45 0 900 1 1 0 0 0 1 H9 10 0 60084 0.00000 0 -4628420.681 21865869.894 -12300660.209 10 0 60084 900.00000 0 -4996618.161 23172058.380 -9428720.336 10 0 60084 1800.00000 0 -5138317.090 24160872.563 -6373679.425 10 0 60084 2700.00000 0 -5095839.944 24790290.553 -3194849.627 10 0 60084 3600.00000 0 -4919066.609 25029792.601 46037.455 10 0 60084 4500.00000 0 -4663082.551 24861666.611 3286030.283 10 0 60084 5400.00000 0 -4385609.844 24281795.711 6462181.987 10 0 60084 6300.00000 0 -4144330.349 23299894.150 9512775.915 10 0 60084 7200.00000 0 -3994214.879 21939181.013 12378527.786 10 0 60084 8100.00000 0 -3984972.100 20235504.913 15003740.663 10 0 60084 9000.00000 0 -4158725.762 18235955.917 17337389.901 10 0 60084 9900.00000 0 -4548019.264 15997022.570 19334116.705 10 0 60084 10800.00000 0 -5174232.598 13582370.866 20955110.869 10 0 60084 11700.00000 0 -6046479.333 11060337.821 22168865.588 10 0 60084 12600.00000 0 -7161030.978 8501244.113 22951789.806 10 0 60084 13500.00000 0 -8501293.836 5974637.641 23288666.428 10 0 60084 14400.00000 0 -10038340.264 3546582.533 23172947.731 10 0 60084 15300.00000 0 -11731972.898 1277106.119 22606882.402 10 0 60084 16200.00000 0 -13532278.073 -782090.386 21601471.869 10 0 60084 17100.00000 0 -15381604.123 -2589562.893 20176256.713 10 0 60084 18000.00000 0 -17216882.277 -4115617.478 18358937.237 10 0 60084 18900.00000 0 -18972193.464 -5343304.218 16184835.333 10 0 60084 19800.00000 0 -20581473.795 -6268871.411 13696207.866 10 0 60084 20700.00000 0 -21981245.474 -6901662.425 10941424.733 10 0 60084 21600.00000 0 -23113258.589 -7263460.783 7974027.430 10 0 60084 22500.00000 0 -23926932.831 -7387312.306 4851686.408 10 0 60084 23400.00000 0 -24381496.337 -7315875.201 1635077.686 10 0 60084 24300.00000 0 -24447731.600 -7099368.845 -1613299.168 10 0 60084 25200.00000 0 -24109254.812 -6793209.001 -4830338.302 10 0 60084 26100.00000 0 -23363274.684 -6455430.369 -7953555.945 10 0 60084 27000.00000 0 -22220798.750 -6144006.271 -10922305.536 10 0 60084 27900.00000 0 -20706278.400 -5914179.487 -13678955.710 10 0 60084 28800.00000 0 -18856707.537 -5815917.563 -16170008.016 10 0 60084 29700.00000 0 -16720212.606 -5891600.467 -18347132.720 10 0 60084 30600.00000 0 -14354192.903 -6174038.436 -20168102.860 10 0 60084 31500.00000 0 -11823088.742 -6684903.786 -21597608.841 10 0 60084 32400.00000 0 -9195870.265 -7433642.932 -22607938.407 10 0 60084 33300.00000 0 -6543351.030 -8416914.637 -23179509.474 10 0 60084 34200.00000 0 -3935437.528 -9618578.501 -23301246.130 10 0 60084 35100.00000 0 -1438428.144 -11010234.736 -22970791.049 10 0 60084 36000.00000 0 887527.186 -12552293.332 -22194550.519 10 0 60084 36900.00000 0 2990702.085 -14195528.696 -20987571.325 10 0 60084 37800.00000 0 4829710.191 -15883055.624 -19373251.694 10 0 60084 38700.00000 0 6374984.336 -17552644.838 -17382891.504 10 0 60084 39600.00000 0 7609757.874 -19139282.019 -15055089.936 10 0 60084 40500.00000 0 8530508.242 -20577863.850 -12435001.580 10 0 60084 41400.00000 0 9146845.153 -21805918.576 -9573464.751 10 0 60084 42300.00000 0 9480848.893 -22766237.170 -6526018.395 10 0 60084 43200.00000 0 9565887.306 -23409304.614 -3351826.235 10 0 60084 44100.00000 0 9444961.891 -23695428.847 -112528.844 10 0 60084 45000.00000 0 9168653.362 -23596477.321 3128954.011 10 0 60084 45900.00000 0 8792753.991 -23097147.470 6309647.282 10 0 60084 46800.00000 0 8375687.360 -22195716.845 9367746.656 10 0 60084 47700.00000 0 7975825.235 -20904240.545 12243822.374 10 0 60084 48600.00000 0 7648815.630 -19248186.829 14881977.006 10 0 60084 49500.00000 0 7445035.656 -17265525.470 17230934.301 10 0 60084 50400.00000 0 7407277.452 -15005306.396 19245037.658 10 0 60084 51300.00000 0 7568765.545 -12525787.591 20885138.694 10 0 60084 52200.00000 0 7951589.902 -9892190.015 22119358.687 10 0 60084 53100.00000 0 8565621.391 -7174172.872 22923708.213 10 0 60084 54000.00000 0 9407955.928 -4443134.105 23282553.165 10 0 60084 54900.00000 0 10462911.341 -1769448.090 23188918.329 10 0 60084 55800.00000 0 11702577.738 780244.901 22644622.791 10 0 60084 56700.00000 0 13087898.878 3145585.283 21660244.637 10 0 60084 57600.00000 0 14570239.768 5274771.481 20254915.633 10 0 60084 58500.00000 0 16093375.181 7126473.939 18455949.734 10 0 60084 59400.00000 0 17595816.071 8671306.980 16298312.455 10 0 60084 60300.00000 0 19013376.517 9892798.161 13823941.169 10 0 60084 61200.00000 0 20281873.489 10787815.709 11080929.345 10 0 60084 62100.00000 0 21339846.002 11366437.429 8122590.455 10 0 60084 63000.00000 0 22131179.167 11651267.874 5006419.744 10 0 60084 63900.00000 0 22607522.485 11676233.776 1792974.208 10 0 60084 64800.00000 0 22730400.283 11484909.762 -1455307.130 10 0 60084 65700.00000 0 22472925.095 11128446.165 -4675319.340 10 0 60084 66600.00000 0 21821041.523 10663187.460 -7804519.959 10 0 60084 67500.00000 0 20774247.909 10148082.903 -10782145.298 10 0 60084 68400.00000 0 19345765.187 9641999.478 -13550390.759 10 0 60084 69300.00000 0 17562145.560 9201051.249 -16055531.968 10 0 60084 70200.00000 0 15462337.151 8876058.222 -18248965.044 10 0 60084 71100.00000 0 13096243.497 8710242.145 -20088146.023 10 0 60084 72000.00000 0 10522837.739 8737256.414 -21537411.659 10 0 60084 72900.00000 0 7807909.761 8979633.061 -22568666.279 10 0 60084 73800.00000 0 5021539.512 9447712.117 -23161922.041 10 0 60084 74700.00000 0 2235400.946 10139098.427 -23305682.747 10 0 60084 75600.00000 0 -479992.246 11038668.897 -22997164.325 10 0 60084 76500.00000 0 -3057985.722 12119130.229 -22242348.036 10 0 60084 77400.00000 0 -5438317.338 13342104.278 -21055865.500 10 0 60084 78300.00000 0 -7569379.667 14659696.173 -19460717.598 10 0 60084 79200.00000 0 -9410119.283 16016480.225 -17487832.343 10 0 60084 80100.00000 0 -10931494.767 17351821.055 -15175469.708 10 0 60084 81000.00000 0 -12117433.697 18602433.230 -12568484.337 10 0 60084 81900.00000 0 -12965249.575 19705072.454 -9717459.717 10 0 60084 82800.00000 0 -13485502.026 20599245.489 -6677730.091 10 0 60084 83700.00000 0 -13701306.928 21229824.890 -3508308.661 10 0 60084 84600.00000 0 -13647126.097 21549458.270 -270742.654 10 0 60084 85500.00000 0 -13367088.123 21520670.151 2972082.450 10 0 60085 0.00000 0 -12912911.789 21117567.213 6157165.817 10 0 60085 900.00000 0 -12341520.018 20327073.977 9222618.871 10 0 60085 1800.00000 0 -11712446.368 19149646.530 12108869.007 10 0 60085 2700.00000 0 -11085143.373 17599432.571 14759821.278 10 0 60085 3600.00000 0 -10516307.595 15703870.485 17123950.795 10 0 60085 4500.00000 0 -10057334.650 13502743.199 19155306.045 10 0 60085 5400.00000 0 -9752012.155 11046725.630 20814403.218 10 0 60085 6300.00000 0 -9634548.325 8395485.693 22068994.202 10 0 60085 7200.00000 0 -9728019.715 5615417.535 22894693.437 10 0 60085 8100.00000 0 -10043303.819 2777100.893 23275451.661 10 0 60085 9000.00000 0 -10578541.793 -47408.180 23203867.593 10 0 60085 9900.00000 0 -11319154.233 -2787343.006 22681331.624 10 0 60085 10800.00000 0 -12238409.660 -5375933.941 21717998.868 10 0 60085 11700.00000 0 -13298522.165 -7752946.036 20332592.062 10 0 60085 12600.00000 0 -14452232.343 -9866941.759 18552038.018 10 0 60085 13500.00000 0 -15644805.329 -11677175.389 16410944.516 10 0 60085 14400.00000 0 -16816362.080 -13155040.972 13950927.551 10 0 60085 15300.00000 0 -17904445.870 -14285014.398 11219801.820 10 0 60085 16200.00000 0 -18846715.908 -15065051.273 8270650.050 10 0 60085 17100.00000 0 -19583654.453 -15506425.132 5160789.244 10 0 60085 18000.00000 0 -20061173.037 -15633013.985 1950654.126 10 0 60085 18900.00000 0 -20233007.553 -15480066.496 -1297380.237 10 0 60085 19800.00000 0 -20062800.809 -15092500.928 -4520213.347 10 0 60085 20700.00000 0 -19525784.260 -14522809.744 -7655247.603 10 0 60085 21600.00000 0 -18609987.642 -13828659.268 -10641605.744 10 0 60085 22500.00000 0 -17316925.075 -13070286.530 -13421313.413 10 0 60085 23400.00000 0 -15661728.393 -12307803.799 -15940423.638 10 0 60085 24300.00000 0 -13672721.605 -11598524.907 -18150061.443 10 0 60085 25200.00000 0 -11390453.869 -10994426.261 -20007368.545 10 0 60085 26100.00000 0 -8866230.880 -10539849.491 -21476330.239 10 0 60085 27000.00000 0 -6160205.402 -10269542.234 -22528469.037 10 0 60085 27900.00000 0 -3339105.773 -10207119.212 -23143392.287 10 0 60085 28800.00000 0 -473696.124 -10364007.985 -23309183.791 10 0 60085 29700.00000 0 2363927.077 -10738923.467 -23022632.378 10 0 60085 30600.00000 0 5103090.923 -11317893.189 -22289293.352 10 0 60085 31500.00000 0 7677241.019 -12074832.382 -21123381.725 10 0 60085 32400.00000 0 10026464.718 -12972645.001 -19547499.171 10 0 60085 33300.00000 0 12099738.853 -13964804.923 -17592199.593 10 0 60085 34200.00000 0 13856809.497 -14997351.428 -15295401.213 10 0 60085 35100.00000 0 15269626.367 -16011215.635 -12701655.897 10 0 60085 36000.00000 0 16323272.889 -16944780.516 -9861289.234 10 0 60085 36900.00000 0 17016353.763 -17736567.033 -6829427.510 10 0 60085 37800.00000 0 17360824.479 -18327933.356 -3664930.015 10 0 60085 38700.00000 0 17381270.547 -18665673.232 -429247.194 10 0 60085 39600.00000 0 17113667.291 -18704403.495 2814773.149 10 0 60085 40500.00000 0 16603672.989 -18408639.392 6004108.210 10 0 60085 41400.00000 0 15904527.822 -17754469.280 9076787.010 10 0 60085 42300.00000 0 15074647.783 -16730757.134 11973097.368 10 0 60085 43200.00000 0 14175015.610 -15339821.045 14636749.124 10 0 60085 44100.00000 0 13266479.320 -13597558.037 17015970.633 10 0 60085 45000.00000 0 12407072.756 -11533008.792 19064516.899 10 0 60085 45900.00000 0 11649471.516 -9187379.447 20742569.649 10 0 60085 46800.00000 0 11038691.766 -6612560.382 22017511.882 10 0 60085 47700.00000 0 10610129.059 -3869202.999 22864561.952 10 0 60085 48600.00000 0 10388019.824 -1024433.894 23267255.067 10 0 60085 49500.00000 0 10384390.311 1850699.093 23217763.094 10 0 60085 50400.00000 0 10598537.195 4683943.284 22717046.603 10 0 60085 51300.00000 0 11017061.699 7404607.693 21774836.304 10 0 60085 52200.00000 0 11614455.747 9946265.243 20409444.228 10 0 60085 53100.00000 0 12354215.522 12249278.850 18647408.183 10 0 60085 54000.00000 0 13190435.530 14263046.923 16522976.220 10 0 60085 54900.00000 0 14069816.025 15947875.431 14077440.863 10 0 60085 55800.00000 0 14933999.118 17276399.181 11358335.873 10 0 60085 56700.00000 0 15722134.941 18234493.853 8418511.013 10 0 60085 57600.00000 0 16373569.362 18821641.578 5315102.793 10 0 60085 58500.00000 0 16830539.472 19050735.781 2108421.389 10 0 60085 59400.00000 0 17040762.640 18947334.655 -1139224.350 10 0 60085 60300.00000 0 16959809.331 18548395.772 -4364740.557 10 0 60085 61200.00000 0 16553159.009 17900546.255 -7505476.592 10 0 60085 62100.00000 0 15797851.829 17057962.412 -10500443.564 10 0 60085 63000.00000 0 14683665.955 16079949.088 -13291499.114 10 0 60085 63900.00000 0 13213770.338 15028321.460 -15824475.225 10 0 60085 64800.00000 0 11404824.972 13964700.048 -18050227.182 10 0 60085 65700.00000 0 9286523.739 12947833.066 -19925583.566 10 0 60085 66600.00000 0 6900598.364 12031058.749 -21414179.249 10 0 60085 67500.00000 0 4299324.335 11260014.106 -22487155.839 10 0 60085 68400.00000 0 1543590.253 10670685.942 -23123716.666 10 0 60085 69300.00000 0 -1299389.858 10287885.467 -23311526.175 10 0 60085 70200.00000 0 -4158627.193 10124209.989 -23046946.545 10 0 60085 71100.00000 0 -6962066.851 10179534.800 -22335107.309 10 0 60085 72000.00000 0 -9639343.151 10441056.243 -21189806.750 10 0 60085 72900.00000 0 -12124468.289 10883884.016 -19633246.855 10 0 60085 73800.00000 0 -14358343.673 11472157.862 -17695606.601 10 0 60085 74700.00000 0 -16290990.458 12160641.912 -15414461.302 10 0 60085 75600.00000 0 -17883407.271 12896729.889 -12834058.623 10 0 60085 76500.00000 0 -19108978.413 13622777.101 -10004464.623 10 0 60085 77400.00000 0 -19954374.300 14278661.136 -6980595.833 10 0 60085 78300.00000 0 -20419907.005 14804463.415 -3821155.717 10 0 60085 79200.00000 0 -20519326.464 15143158.300 -587495.919 10 0 60085 80100.00000 0 -20279066.311 15243195.868 2657575.560 10 0 60085 81000.00000 0 -19736971.480 15060868.706 5851015.900 10 0 60085 81900.00000 0 -18940561.560 14562361.962 8930774.653 10 0 60085 82800.00000 0 -17944903.506 13725399.121 11837002.252 10 0 60085 83700.00000 0 -16810183.779 12540412.979 14513215.891 10 0 60085 84600.00000 0 -15599082.689 11011191.236 16907399.774 10 0 60085 85500.00000 0 -14374061.906 9154968.316 18973017.995 10 0 60086 0.00000 0 -13194679.812 7001958.483 20669920.156 10 0 60086 900.00000 0 -12115047.250 4594347.418 21965122.957 10 0 60086 1800.00000 0 -11181532.333 1984786.232 22833450.504 10 0 60086 2700.00000 0 -10430808.659 -765554.017 23258024.152 10 0 60086 3600.00000 0 -9888330.390 -3589284.347 23230590.206 10 0 60086 4500.00000 0 -9567297.369 -6415362.407 22751680.263 10 0 60086 5400.00000 0 -9468153.562 -9171813.402 21830601.025 10 0 60086 6300.00000 0 -9578639.553 -11788494.821 20485253.723 10 0 60086 7200.00000 0 -9874396.538 -14199790.524 18741786.587 10 0 60086 8100.00000 0 -10320096.056 -16347122.579 16634086.891 10 0 60086 9000.00000 0 -10871047.546 -18181176.797 14203122.202 10 0 60086 9900.00000 0 -11475215.623 -19663749.662 11496143.462 10 0 60086 10800.00000 0 -12075561.622 -20769140.218 8565765.255 10 0 60086 11700.00000 0 -12612610.164 -21485029.365 5468941.097 10 0 60086 12600.00000 0 -13027131.858 -21812810.591 2265853.896 10 0 60086 13500.00000 0 -13262828.295 -21767359.133 -981256.621 10 0 60086 14400.00000 0 -13268905.273 -21376250.270 -4209306.287 10 0 60086 15300.00000 0 -13002424.961 -20678460.589 -7355594.617 10 0 60086 16200.00000 0 -12430337.025 -19722607.884 -10359024.373 10 0 60086 17100.00000 0 -11531102.409 -18564804.612 -13161288.522 10 0 60086 18000.00000 0 -10295840.688 -17266216.012 -15708001.295 10 0 60086 18900.00000 0 -8728952.064 -15890426.151 -17949751.398 10 0 60086 19800.00000 0 -6848187.182 -14500722.908 -19843057.174 10 0 60086 20700.00000 0 -4684161.096 -13157416.004 -21351205.602 10 0 60086 21600.00000 0 -2279330.902 -11915300.420 -22444959.439 10 0 60086 22500.00000 0 313521.210 -10821371.101 -23103119.496 10 0 60086 23400.00000 0 3033237.203 -9912884.161 -23312931.765 10 0 60086 24300.00000 0 5812584.705 -9215845.041 -23070332.093 10 0 60086 25200.00000 0 8580816.224 -8743986.244 -22380024.001 10 0 60086 26100.00000 0 11266380.811 -8498276.783 -21255388.284 10 0 60086 27000.00000 0 13799676.661 -8466983.351 -19718226.021 10 0 60086 27900.00000 0 16115731.272 -8626280.273 -17798339.591 10 0 60086 28800.00000 0 18156698.577 -8941382.387 -15532959.309 10 0 60086 29700.00000 0 19874069.890 -9368153.152 -12966026.132 10 0 60086 30600.00000 0 21230507.100 -9855120.318 -10147343.685 10 0 60086 31500.00000 0 22201222.036 -10345814.249 -7131615.481 10 0 60086 32400.00000 0 22774844.672 -10781330.229 -3977385.605 10 0 60086 33300.00000 0 22953744.117 -11103006.429 -745903.156 10 0 60086 34200.00000 0 22753789.104 -11255104.063 2500067.474 10 0 60086 35100.00000 0 22203558.327 -11187375.932 5697467.188 10 0 60086 36000.00000 0 21343034.041 -10857414.077 8784169.602 10 0 60086 36900.00000 0 20221834.181 -10232676.406 11700190.966 10 0 60086 37800.00000 0 18897057.736 -9292105.658 14388858.629 10 0 60086 38700.00000 0 17430834.323 -8027271.200 16797914.966 10 0 60086 39600.00000 0 15887681.410 -6442984.298 18880535.004 10 0 60086 40500.00000 0 14331780.515 -4557359.645 20596237.810 10 0 60086 41400.00000 0 12824286.994 -2401319.253 21911674.003 10 0 60086 42300.00000 0 11420786.437 -17558.236 22801274.127 10 0 60086 43200.00000 0 10169004.281 2540985.476 23247745.552 10 0 60086 44100.00000 0 9106864.466 5213094.681 23242408.431 10 0 60086 45000.00000 0 8260978.174 7931588.780 22785364.369 10 0 60086 45900.00000 0 7645625.510 10625896.336 21885494.619 10 0 60086 46800.00000 0 7262272.265 13224777.933 20560287.837 10 0 60086 47700.00000 0 7099641.421 15659086.521 18835500.587 10 0 60086 48600.00000 0 7134335.704 17864450.782 16744657.040 10 0 60086 49500.00000 0 7331984.346 19783770.153 14328397.305 10 0 60086 50400.00000 0 7648865.088 21369417.747 11633686.878 10 0 60086 51300.00000 0 8033932.400 22585059.627 8712902.444 10 0 60086 52200.00000 0 8431165.650 23407014.772 5622811.777 10 0 60086 53100.00000 0 8782137.393 23825099.327 2423467.759 10 0 60086 54000.00000 0 9028692.554 23842920.360 -822961.707 10 0 60086 54900.00000 0 9115624.578 23477607.539 -4053404.728 10 0 60086 55800.00000 0 8993234.695 22758994.774 -7205113.379 10 0 60086 56700.00000 0 8619665.510 21728287.068 -10216884.239 10 0 60086 57600.00000 0 7962909.685 20436269.395 -13030247.495 10 0 60086 58500.00000 0 7002408.311 18941133.599 -15590601.221 10 0 60086 59400.00000 0 5730171.001 17306015.154 -17848268.857 10 0 60086 60300.00000 0 4151369.855 15596343.499 -19759459.573 10 0 60086 61200.00000 0 2284381.649 13877117.201 -21287113.288 10 0 60086 62100.00000 0 160275.649 12210217.924 -22401614.547 10 0 60086 63000.00000 0 -2178232.493 10651875.231 -23081362.084 10 0 60086 63900.00000 0 -4678318.038 9250387.623 -23313183.683 10 0 60086 64800.00000 0 -7279012.721 8044194.307 -23092588.851 10 0 60086 65700.00000 0 -9913517.899 7060377.379 -22423854.800 10 0 60086 66600.00000 0 -12511770.178 6313656.157 -21319944.208 10 0 60086 67500.00000 0 -15003153.979 5805914.860 -19802256.259 10 0 60086 68400.00000 0 -17319249.281 5526282.670 -17900215.411 10 0 60086 69300.00000 0 -19396501.034 5451762.223 -15650705.367 10 0 60086 70200.00000 0 -21178699.838 5548379.689 -13097358.542 10 0 60086 71100.00000 0 -22619170.951 5772807.791 -10289714.144 10 0 60086 72000.00000 0 -23682580.580 6074393.161 -7282260.611 10 0 60086 72900.00000 0 -24346284.093 6397502.363 -4133380.563 10 0 60086 73800.00000 0 -24601159.801 6684087.279 -904218.449 10 0 60086 74700.00000 0 -24451893.326 6876361.109 2342507.072 10 0 60086 75600.00000 0 -23916700.629 6919471.339 5543722.781 10 0 60086 76500.00000 0 -23026501.347 6764055.980 8637228.562 10 0 60086 77400.00000 0 -21823577.254 6368574.171 11562908.741 10 0 60086 78300.00000 0 -20359772.354 5701311.652 14263903.101 10 0 60086 79200.00000 0 -18694310.442 4741975.328 16687714.465 10 0 60086 80100.00000 0 -16891321.984 3482808.466 18787230.964 10 0 60086 81000.00000 0 -15017184.335 1929178.287 20521643.032 10 0 60086 81900.00000 0 -13137786.923 99609.936 21857237.297 10 0 60086 82800.00000 0 -11315836.104 -1974735.900 22768052.071 10 0 60086 83700.00000 0 -9608312.368 -4251121.093 23236381.890 10 0 60086 84600.00000 0 -8064186.109 -6676780.860 23253121.541 10 0 60086 85500.00000 0 -6722487.078 -9190903.514 22817943.038 10 0 60087 0.00000 0 -5610807.846 -11726957.285 21939302.319 10 0 60087 900.00000 0 -4744302.625 -14215269.377 20634274.947 10 0 60087 1800.00000 0 -4125224.037 -16585746.950 18928225.167 10 0 60087 2700.00000 0 -3743014.370 -18770631.600 16854312.980 10 0 60087 3600.00000 0 -3574948.107 -20707169.403 14452849.635 10 0 60087 4500.00000 0 -3587297.122 -22340086.686 11770513.480 10 0 60087 5400.00000 0 -3736968.674 -23623768.036 8859441.350 10 0 60087 6300.00000 0 -3973546.187 -24524045.663 5776213.107 10 0 60087 7200.00000 0 -4241645.807 -25019525.412 2580749.268 10 0 60087 8100.00000 0 -4483488.297 -25102394.159 -664856.565 10 0 60087 9000.00000 0 -4641576.709 -24778675.139 -3897547.390 10 0 60087 9900.00000 0 -4661365.833 -24067920.997 -7054530.566 10 0 60087 10800.00000 0 -4493809.813 -23002358.054 -10074499.335 10 0 60087 11700.00000 0 -4097679.586 -21625518.326 -12898824.016 10 0 60087 12600.00000 0 -3441551.641 -19990417.352 -15472689.467 10 0 60087 13500.00000 0 -2505383.639 -18157354.760 -17746156.751 10 0 60087 14400.00000 0 -1281609.869 -16191430.096 -19675128.586 10 0 60087 15300.00000 0 224290.127 -14159878.114 -21222200.291 10 0 60087 16200.00000 0 1993774.389 -12129334.832 -22357380.294 10 0 60087 17100.00000 0 3995774.391 -10163148.234 -23058666.910 10 0 60087 18000.00000 0 6187762.449 -8318845.313 -23312470.881 10 0 60087 18900.00000 0 8517307.165 -6645860.301 -23113876.047 10 0 60087 19800.00000 0 10924053.209 -5183617.901 -22466733.494 10 0 60087 20700.00000 0 13342044.091 -3960050.468 -21383587.498 10 0 60087 21600.00000 0 15702292.313 -2990609.997 -19885434.615 10 0 60087 22500.00000 0 17935490.967 -2277815.203 -18001320.213 10 0 60087 23400.00000 0 19974754.651 -1811351.783 -15767779.758 10 0 60087 24300.00000 0 21758276.186 -1568720.900 -13228135.047 10 0 60087 25200.00000 0 23231788.737 -1516408.058 -10431658.335 10 0 60087 26100.00000 0 24350730.752 -1611522.705 -7432620.030 10 0 60087 27000.00000 0 25082023.214 -1803839.085 -4289237.952 10 0 60087 27900.00000 0 25405384.687 -2038151.827 -1062548.302 10 0 60087 28800.00000 0 25314128.817 -2256846.357 2184779.738 10 0 60087 29700.00000 0 24815410.583 -2402574.957 5389662.580 10 0 60087 30600.00000 0 23929910.684 -2420924.680 8489830.003 10 0 60087 31500.00000 0 22690971.157 -2262963.519 11425037.780 10 0 60087 32400.00000 0 21143218.367 -1887556.321 14138241.172 10 0 60087 33300.00000 0 19340731.149 -1263351.580 16576706.079 10 0 60087 34200.00000 0 17344830.955 -370354.179 18693035.942 10 0 60087 35100.00000 0 15221586.688 798983.395 20446094.308 10 0 60087 36000.00000 0 13039138.749 2239198.485 21801805.118 10 0 60087 36900.00000 0 10864954.220 3931809.237 22733815.287 10 0 60087 37800.00000 0 8763127.821 5845860.697 23224006.888 10 0 60087 38700.00000 0 6791841.089 7939004.347 23262849.231 10 0 60087 39600.00000 0 5001085.523 10159066.995 22849584.140 10 0 60087 40500.00000 0 3430744.140 12446044.433 21992240.947 10 0 60087 41400.00000 0 2109110.875 14734437.461 20707480.893 10 0 60087 42300.00000 0 1051908.816 16955833.382 19020273.802 10 0 60087 43200.00000 0 261847.394 19041625.709 16963413.167 10 0 60087 44100.00000 0 -271264.028 20925758.819 14576878.750 10 0 60087 45000.00000 0 -569852.032 22547383.012 11907058.914 10 0 60087 45900.00000 0 -667393.559 23853309.008 9005847.662 10 0 60087 46800.00000 0 -606759.927 24800159.131 5929633.880 10 0 60087 47700.00000 0 -438161.388 25356125.036 2738202.644 10 0 60087 48600.00000 0 -216780.034 25502258.287 -506429.788 10 0 60087 49500.00000 0 -192.113 25233239.773 -3741224.232 10 0 60087 50400.00000 0 154310.405 24557595.850 -6903346.081 10 0 60087 51300.00000 0 192384.904 23497352.461 -9931387.733 10 0 60087 52200.00000 0 65176.478 22087142.116 -12766561.846 10 0 60087 53100.00000 0 -268378.310 20372801.607 -15353841.937 10 0 60087 54000.00000 0 -839580.037 18409519.592 -17643028.223 10 0 60087 54900.00000 0 -1668411.048 16259611.868 -19589718.197 10 0 60087 55800.00000 0 -2762462.062 13990017.502 -21156163.504 10 0 60087 56700.00000 0 -4116386.456 11669620.287 -22311997.109 10 0 60087 57600.00000 0 -5711905.795 9366506.955 -23034817.305 10 0 60087 58500.00000 0 -7518367.125 7145275.880 -23310617.911 10 0 60087 59400.00000 0 -9493829.667 5064507.583 -23134056.920 10 0 60087 60300.00000 0 -11586636.511 3174501.380 -22508558.773 10 0 60087 61200.00000 0 -13737406.798 1515371.401 -21446248.458 10 0 60087 62100.00000 0 -15881366.377 115580.145 -19967718.638 10 0 60087 63000.00000 0 -17950920.779 -1009030.399 -18101633.961 10 0 60087 63900.00000 0 -19878364.047 -1855670.633 -15884179.725 10 0 60087 64800.00000 0 -21598611.093 -2434481.137 -13358364.934 10 0 60087 65700.00000 0 -23051839.904 -2767862.316 -10573192.575 10 0 60087 66600.00000 0 -24185933.346 -2889284.749 -7582712.615 10 0 60087 67500.00000 0 -24958618.334 -2841630.915 -4444975.654 10 0 60087 68400.00000 0 -25339212.502 -2675138.701 -1220907.227 10 0 60087 69300.00000 0 -25309904.754 -2445034.025 2026875.355 10 0 60087 70200.00000 0 -24866515.439 -2208953.141 5235280.520 10 0 60087 71100.00000 0 -24018703.762 -2024264.208 8341970.305 10 0 60087 72000.00000 0 -22789613.217 -1945402.097 11286574.270 10 0 60087 72900.00000 0 -21214969.541 -2021329.901 14011865.422 10 0 60087 73800.00000 0 -19341668.679 -2293235.306 16464874.903 10 0 60087 74700.00000 0 -17225913.754 -2792560.033 18597923.450 10 0 60087 75600.00000 0 -14930978.893 -3539446.489 20369549.459 10 0 60087 76500.00000 0 -12524693.296 -4541668.082 21745315.612 10 0 60087 77400.00000 0 -10076750.583 -5794089.284 22698478.500 10 0 60087 78300.00000 0 -7655955.530 -7278679.207 23210508.426 10 0 60087 79200.00000 0 -5327522.723 -8965079.174 23271449.537 10 0 60087 80100.00000 0 -3150539.403 -10811701.511 22880113.414 10 0 60087 81000.00000 0 -1175697.666 -12767314.505 22044102.499 10 0 60087 81900.00000 0 556610.125 -14773048.041 20779662.839 10 0 60087 82800.00000 0 2017754.071 -16764736.687 19111368.913 10 0 60087 83700.00000 0 3191827.530 -18675502.758 17071646.434 10 0 60087 84600.00000 0 4076066.879 -20438471.600 14700142.139 10 0 60087 85500.00000 0 4680713.849 -21989505.601 12042952.623 99